Time,TemperatureF,DewpointF,PressureIn,WindDirection,WindDirectionDegrees,WindSpeedMPH,WindSpeedGustMPH,Humidity,HourlyPrecipIn,Conditions,Clouds,dailyrainin,SoftwareType,DateUTC
2013-01-29 00:04:00,71.0,66.0,30.23,ESE,104,5.0,8.0,84,-99.99,,,-99.99,,2013-01-29 05:04:00,
2013-01-29 00:12:00,71.0,67.0,30.23,ESE,105,5.0,7.0,85,-99.99,,,-99.99,,2013-01-29 05:12:00,
2013-01-29 00:22:00,71.0,67.0,30.23,ESE,105,5.0,7.0,85,-99.99,,,-99.99,,2013-01-29 05:22:00,
2013-01-29 00:32:00,71.0,67.0,30.22,ESE,111,5.0,9.0,86,-99.99,,,-99.99,,2013-01-29 05:32:00,
2013-01-29 00:42:00,72.0,67.0,30.21,ESE,117,6.0,11.0,84,-99.99,,,-99.99,,2013-01-29 05:42:00,
2013-01-29 00:52:00,72.0,67.0,30.21,ESE,113,5.0,9.0,83,-99.99,,,-99.99,,2013-01-29 05:52:00,
2013-01-29 01:02:00,72.0,67.0,30.21,ESE,113,5.0,9.0,83,-99.99,,,-99.99,,2013-01-29 06:02:00,
2013-01-29 01:11:00,72.0,67.0,30.21,ESE,116,5.0,8.0,82,-99.99,,,-99.99,,2013-01-29 06:11:00,
2013-01-29 01:21:00,72.0,67.0,30.21,ESE,116,5.0,8.0,82,-99.99,,,-99.99,,2013-01-29 06:21:00,
2013-01-29 01:32:00,72.0,66.0,30.21,SE,125,6.0,10.0,80,-99.99,,,-99.99,,2013-01-29 06:32:00,
2013-01-29 01:42:00,72.0,66.0,30.21,ESE,110,5.0,8.0,79,-99.99,,,-99.99,,2013-01-29 06:42:00,
2013-01-29 01:52:00,72.0,65.0,30.20,SE,131,5.0,8.0,80,-99.99,,,-99.99,,2013-01-29 06:52:00,
2013-01-29 02:02:00,72.0,65.0,30.20,SE,131,5.0,8.0,80,-99.99,,,-99.99,,2013-01-29 07:02:00,
2013-01-29 02:11:00,71.0,65.0,30.19,SE,136,4.0,6.0,81,-99.99,,,-99.99,,2013-01-29 07:11:00,
2013-01-29 02:21:00,71.0,65.0,30.19,SE,136,4.0,6.0,81,-99.99,,,-99.99,,2013-01-29 07:21:00,
2013-01-29 02:32:00,71.0,65.0,30.19,SE,137,4.0,6.0,81,-99.99,,,-99.99,,2013-01-29 07:32:00,
2013-01-29 02:42:00,70.0,65.0,30.19,SE,129,3.0,6.0,82,-99.99,,,-99.99,,2013-01-29 07:42:00,
2013-01-29 02:52:00,70.0,65.0,30.19,ESE,121,3.0,5.0,83,-99.99,,,-99.99,,2013-01-29 07:52:00,
2013-01-29 03:02:00,70.0,65.0,30.19,ESE,121,3.0,5.0,83,-99.99,,,-99.99,,2013-01-29 08:02:00,
2013-01-29 03:11:00,70.0,65.0,30.18,SE,129,4.0,7.0,83,-99.99,,,-99.99,,2013-01-29 08:11:00,
2013-01-29 03:21:00,70.0,65.0,30.18,SE,129,4.0,7.0,83,-99.99,,,-99.99,,2013-01-29 08:21:00,
2013-01-29 03:32:00,70.0,65.0,30.18,SE,129,4.0,7.0,83,-99.99,,,-99.99,,2013-01-29 08:32:00,
2013-01-29 03:42:00,69.0,65.0,30.18,East,91,4.0,5.0,88,-99.99,,,-99.99,,2013-01-29 08:42:00,
2013-01-29 03:52:00,68.0,65.0,30.18,ESE,123,3.0,4.0,90,-99.99,,,-99.99,,2013-01-29 08:52:00,
2013-01-29 04:02:00,68.0,65.0,30.18,ESE,123,3.0,4.0,90,-99.99,,,-99.99,,2013-01-29 09:02:00,
2013-01-29 04:11:00,67.0,64.0,30.18,SE,144,1.0,3.0,92,-99.99,,,-99.99,,2013-01-29 09:11:00,
2013-01-29 04:21:00,67.0,64.0,30.18,SE,144,1.0,3.0,92,-99.99,,,-99.99,,2013-01-29 09:21:00,
2013-01-29 04:32:00,66.0,65.0,30.18,SSE,151,2.0,3.0,94,-99.99,,,-99.99,,2013-01-29 09:32:00,
2013-01-29 04:42:00,67.0,65.0,30.18,SSE,152,3.0,3.0,95,-99.99,,,-99.99,,2013-01-29 09:42:00,
2013-01-29 04:52:00,66.0,65.0,30.18,SSE,161,3.0,4.0,95,-99.99,,,-99.99,,2013-01-29 09:52:00,
2013-01-29 05:02:00,66.0,65.0,30.18,SSE,161,3.0,4.0,95,-99.99,,,-99.99,,2013-01-29 10:02:00,
2013-01-29 05:11:00,66.0,65.0,30.17,ESE,116,2.0,3.0,96,-99.99,,,-99.99,,2013-01-29 10:11:00,
2013-01-29 05:21:00,66.0,65.0,30.17,ESE,116,2.0,3.0,96,-99.99,,,-99.99,,2013-01-29 10:21:00,
2013-01-29 05:32:00,66.0,65.0,30.17,East,96,1.0,2.0,96,-99.99,,,-99.99,,2013-01-29 10:32:00,
2013-01-29 05:42:00,65.0,64.0,30.17,East,90,1.0,9.0,96,-99.99,,,-99.99,,2013-01-29 10:42:00,
2013-01-29 05:52:00,65.0,64.0,30.18,East,94,4.0,31.0,96,-99.99,,,-99.99,,2013-01-29 10:52:00,
2013-01-29 06:02:00,65.0,64.0,30.18,East,94,4.0,31.0,96,-99.99,,,-99.99,,2013-01-29 11:02:00,
2013-01-29 06:12:00,65.0,64.0,30.18,East,94,4.0,31.0,96,-99.99,,,-99.99,,2013-01-29 11:12:00,
2013-01-29 06:22:00,65.0,64.0,30.18,East,94,4.0,31.0,96,-99.99,,,-99.99,,2013-01-29 11:22:00,
2013-01-29 06:32:00,65.0,64.0,30.18,East,94,4.0,31.0,96,-99.99,,,-99.99,,2013-01-29 11:32:00,
2013-01-29 06:42:00,66.0,66.0,30.18,SW,224,3.0,8.0,97,-99.99,,,-99.99,,2013-01-29 11:42:00,
2013-01-29 06:53:00,66.0,65.0,30.19,SSW,198,2.0,3.0,97,-99.99,,,-99.99,,2013-01-29 11:53:00,
2013-01-29 07:03:00,66.0,65.0,30.19,SSW,198,2.0,3.0,97,-99.99,,,-99.99,,2013-01-29 12:03:00,
2013-01-29 07:12:00,66.0,65.0,30.19,ENE,57,1.0,2.0,97,-99.99,,,-99.99,,2013-01-29 12:12:00,
2013-01-29 07:22:00,66.0,65.0,30.19,ENE,57,1.0,2.0,97,-99.99,,,-99.99,,2013-01-29 12:22:00,
2013-01-29 07:33:00,67.0,66.0,30.20,ENE,64,1.0,2.0,97,-99.99,,,-99.99,,2013-01-29 12:33:00,
2013-01-29 07:43:00,67.0,66.0,30.20,ENE,60,2.0,2.0,97,-99.99,,,-99.99,,2013-01-29 12:43:00,
2013-01-29 07:53:00,67.0,66.0,30.20,ENE,76,1.0,3.0,97,-99.99,,,-99.99,,2013-01-29 12:53:00,
2013-01-29 08:02:00,67.0,66.0,30.20,ENE,76,1.0,3.0,97,-99.99,,,-99.99,,2013-01-29 13:02:00,
2013-01-29 08:12:00,67.0,66.0,30.20,East,97,2.0,2.0,97,-99.99,,,-99.99,,2013-01-29 13:12:00,
2013-01-29 08:23:00,67.0,66.0,30.20,East,97,2.0,2.0,97,-99.99,,,-99.99,,2013-01-29 13:23:00,
2013-01-29 08:32:00,68.0,67.0,30.21,SE,125,2.0,2.0,97,-99.99,,,-99.99,,2013-01-29 13:32:00,
2013-01-29 08:43:00,69.0,69.0,30.21,ENE,70,1.0,1.0,97,-99.99,,,-99.99,,2013-01-29 13:43:00,
2013-01-29 08:53:00,71.0,69.0,30.21,South,170,2.0,4.0,91,-99.99,,,-99.99,,2013-01-29 13:53:00,
2013-01-29 09:02:00,71.0,69.0,30.21,South,170,2.0,4.0,91,-99.99,,,-99.99,,2013-01-29 14:02:00,
2013-01-29 09:12:00,74.0,68.0,30.21,SE,146,5.0,9.0,80,-99.99,,,-99.99,,2013-01-29 14:12:00,
2013-01-29 09:22:00,74.0,68.0,30.21,SE,146,5.0,9.0,80,-99.99,,,-99.99,,2013-01-29 14:22:00,
2013-01-29 09:33:00,75.0,68.0,30.21,SSE,160,7.0,56.0,78,-99.99,,,-99.99,,2013-01-29 14:33:00,
2013-01-29 09:43:00,75.0,68.0,30.21,SSE,151,10.0,43.0,79,-99.99,,,-99.99,,2013-01-29 14:43:00,
2013-01-29 09:53:00,75.0,68.0,30.21,SE,141,8.0,37.0,78,-99.99,,,-99.99,,2013-01-29 14:53:00,
2013-01-29 10:03:00,75.0,68.0,30.21,SE,141,8.0,37.0,78,-99.99,,,-99.99,,2013-01-29 15:03:00,
2013-01-29 10:12:00,75.0,68.0,30.21,SE,127,13.0,50.0,79,-99.99,,,-99.99,,2013-01-29 15:12:00,
2013-01-29 10:22:00,75.0,68.0,30.21,SE,127,13.0,50.0,79,-99.99,,,-99.99,,2013-01-29 15:22:00,
2013-01-29 10:33:00,74.0,69.0,30.21,SE,145,9.0,17.0,83,-99.99,,,-99.99,,2013-01-29 15:33:00,
2013-01-29 10:43:00,74.0,69.0,30.22,SSE,147,6.0,10.0,86,-99.99,,,-99.99,,2013-01-29 15:43:00,
2013-01-29 10:53:00,75.0,69.0,30.21,SE,145,10.0,18.0,81,-99.99,,,-99.99,,2013-01-29 15:53:00,
2013-01-29 11:03:00,75.0,69.0,30.21,SE,145,10.0,18.0,81,-99.99,,,-99.99,,2013-01-29 16:03:00,
2013-01-29 11:12:00,75.0,68.0,30.21,SSE,155,13.0,18.0,79,-99.99,,,-99.99,,2013-01-29 16:12:00,
2013-01-29 11:23:00,75.0,68.0,30.21,SSE,155,13.0,18.0,79,-99.99,,,-99.99,,2013-01-29 16:23:00,
2013-01-29 11:32:00,76.0,68.0,30.21,SSE,156,13.0,21.0,77,-99.99,,,-99.99,,2013-01-29 16:32:00,
2013-01-29 11:43:00,76.0,69.0,30.21,SSE,153,11.0,19.0,77,-99.99,,,-99.99,,2013-01-29 16:43:00,
2013-01-29 11:53:00,76.0,68.0,30.21,SSE,158,12.0,17.0,78,-99.99,,,-99.99,,2013-01-29 16:53:00,
2013-01-29 12:03:00,76.0,68.0,30.21,SSE,158,12.0,17.0,78,-99.99,,,-99.99,,2013-01-29 17:03:00,
2013-01-29 12:12:00,76.0,68.0,30.20,SSE,152,11.0,19.0,77,-99.99,,,-99.99,,2013-01-29 17:12:00,
2013-01-29 12:22:00,76.0,68.0,30.20,SSE,152,11.0,19.0,77,-99.99,,,-99.99,,2013-01-29 17:22:00,
2013-01-29 12:33:00,76.0,68.0,30.20,SSE,152,11.0,19.0,77,-99.99,,,-99.99,,2013-01-29 17:33:00,
2013-01-29 12:42:00,77.0,68.0,30.19,SSE,150,12.0,18.0,74,-99.99,,,-99.99,,2013-01-29 17:42:00,
2013-01-29 12:53:00,77.0,68.0,30.18,SSE,151,12.0,17.0,74,-99.99,,,-99.99,,2013-01-29 17:53:00,
2013-01-29 13:04:00,77.0,68.0,30.18,SSE,151,12.0,17.0,74,-99.99,,,-99.99,,2013-01-29 18:04:00,
2013-01-29 13:13:00,76.0,68.0,30.17,SSE,156,13.0,19.0,74,-99.99,,,-99.99,,2013-01-29 18:13:00,
2013-01-29 13:22:00,76.0,68.0,30.17,SSE,156,13.0,19.0,74,-99.99,,,-99.99,,2013-01-29 18:22:00,
2013-01-29 13:33:00,76.0,68.0,30.17,SSE,156,13.0,19.0,74,-99.99,,,-99.99,,2013-01-29 18:33:00,
2013-01-29 13:42:00,76.0,68.0,30.17,SSE,156,13.0,19.0,74,-99.99,,,-99.99,,2013-01-29 18:42:00,
2013-01-29 14:33:00,78.0,68.0,30.14,SSE,149,13.0,21.0,71,-99.99,,,-99.99,,2013-01-29 19:33:00,
2013-01-29 14:42:00,78.0,68.0,30.13,SSE,157,14.0,20.0,71,-99.99,,,-99.99,,2013-01-29 19:42:00,
2013-01-29 14:52:00,77.0,68.0,30.12,SSE,147,13.0,19.0,73,-99.99,,,-99.99,,2013-01-29 19:52:00,
2013-01-29 15:03:00,77.0,68.0,30.12,SSE,147,13.0,19.0,73,-99.99,,,-99.99,,2013-01-29 20:03:00,
2013-01-29 15:13:00,76.0,68.0,30.12,SE,145,13.0,21.0,73,-99.99,,,-99.99,,2013-01-29 20:13:00,
2013-01-29 15:23:00,76.0,68.0,30.12,SE,145,13.0,21.0,73,-99.99,,,-99.99,,2013-01-29 20:23:00,
2013-01-29 15:33:00,76.0,68.0,30.12,SE,145,13.0,21.0,73,-99.99,,,-99.99,,2013-01-29 20:33:00,
2013-01-29 15:42:00,76.0,67.0,30.12,SSE,147,14.0,22.0,72,-99.99,,,-99.99,,2013-01-29 20:42:00,
2013-01-29 15:54:00,78.0,67.0,30.11,SSE,160,14.0,22.0,68,-99.99,,,-99.99,,2013-01-29 20:54:00,
2013-01-29 16:03:00,78.0,67.0,30.11,SSE,160,14.0,22.0,68,-99.99,,,-99.99,,2013-01-29 21:03:00,
2013-01-29 16:12:00,78.0,67.0,30.11,SSE,156,13.0,21.0,69,-99.99,,,-99.99,,2013-01-29 21:12:00,
2013-01-29 16:22:00,78.0,67.0,30.11,SSE,156,13.0,21.0,69,-99.99,,,-99.99,,2013-01-29 21:22:00,
2013-01-29 16:33:00,78.0,68.0,30.11,SSE,153,12.0,17.0,70,-99.99,,,-99.99,,2013-01-29 21:33:00,
2013-01-29 16:42:00,78.0,68.0,30.12,SE,131,11.0,19.0,71,-99.99,,,-99.99,,2013-01-29 21:42:00,
2013-01-29 16:53:00,77.0,67.0,30.12,SE,129,13.0,20.0,71,-99.99,,,-99.99,,2013-01-29 21:53:00,
2013-01-29 17:03:00,77.0,67.0,30.12,SE,129,13.0,20.0,71,-99.99,,,-99.99,,2013-01-29 22:03:00,
2013-01-29 17:12:00,76.0,68.0,30.12,SE,132,13.0,22.0,73,-99.99,,,-99.99,,2013-01-29 22:12:00,
2013-01-29 17:22:00,76.0,68.0,30.12,SE,132,13.0,22.0,73,-99.99,,,-99.99,,2013-01-29 22:22:00,
2013-01-29 17:33:00,76.0,67.0,30.13,SE,132,11.0,18.0,75,-99.99,,,-99.99,,2013-01-29 22:33:00,
2013-01-29 17:42:00,75.0,67.0,30.13,SE,138,10.0,17.0,76,-99.99,,,-99.99,,2013-01-29 22:42:00,
2013-01-29 17:53:00,74.0,66.0,30.13,SE,135,10.0,16.0,75,-99.99,,,-99.99,,2013-01-29 22:53:00,
2013-01-29 18:02:00,74.0,66.0,30.13,SE,135,10.0,16.0,75,-99.99,,,-99.99,,2013-01-29 23:02:00,
2013-01-29 18:12:00,74.0,66.0,30.13,SE,145,10.0,15.0,76,-99.99,,,-99.99,,2013-01-29 23:12:00,
2013-01-29 18:23:00,74.0,66.0,30.13,SE,145,10.0,15.0,76,-99.99,,,-99.99,,2013-01-29 23:23:00,
2013-01-29 18:33:00,73.0,66.0,30.13,SE,142,8.0,15.0,78,-99.99,,,-99.99,,2013-01-29 23:33:00,
2013-01-29 18:42:00,73.0,66.0,30.13,SE,141,10.0,14.0,78,-99.99,,,-99.99,,2013-01-29 23:42:00,
2013-01-29 18:53:00,73.0,66.0,30.13,SE,141,9.0,12.0,77,-99.99,,,-99.99,,2013-01-29 23:53:00,
2013-01-29 19:03:00,73.0,66.0,30.13,SE,141,9.0,12.0,77,-99.99,,,-99.99,,2013-01-30 00:03:00,
2013-01-29 19:12:00,73.0,66.0,30.13,SE,143,8.0,14.0,78,-99.99,,,-99.99,,2013-01-30 00:12:00,
2013-01-29 19:22:00,73.0,66.0,30.13,SE,143,8.0,14.0,78,-99.99,,,-99.99,,2013-01-30 00:22:00,
2013-01-29 19:32:00,73.0,65.0,30.13,SE,146,9.0,13.0,78,-99.99,,,-99.99,,2013-01-30 00:32:00,
2013-01-29 19:43:00,72.0,65.0,30.13,SE,145,7.0,12.0,78,-99.99,,,-99.99,,2013-01-30 00:43:00,
2013-01-29 19:53:00,72.0,65.0,30.13,SSE,151,7.0,10.0,79,-99.99,,,-99.99,,2013-01-30 00:53:00,
2013-01-29 20:02:00,72.0,65.0,30.13,SSE,151,7.0,10.0,79,-99.99,,,-99.99,,2013-01-30 01:02:00,
2013-01-29 20:12:00,71.0,65.0,30.13,SE,144,6.0,10.0,80,-99.99,,,-99.99,,2013-01-30 01:12:00,
2013-01-29 20:22:00,71.0,65.0,30.13,SE,144,6.0,10.0,80,-99.99,,,-99.99,,2013-01-30 01:22:00,
2013-01-29 20:32:00,71.0,65.0,30.14,SE,143,5.0,8.0,80,-99.99,,,-99.99,,2013-01-30 01:32:00,
2013-01-29 20:42:00,71.0,65.0,30.14,SE,130,4.0,6.0,80,-99.99,,,-99.99,,2013-01-30 01:42:00,
2013-01-29 20:52:00,71.0,65.0,30.14,SE,125,4.0,6.0,81,-99.99,,,-99.99,,2013-01-30 01:52:00,
2013-01-29 21:02:00,71.0,65.0,30.14,SE,125,4.0,6.0,81,-99.99,,,-99.99,,2013-01-30 02:02:00,
2013-01-29 21:12:00,71.0,65.0,30.14,ESE,120,4.0,5.0,83,-99.99,,,-99.99,,2013-01-30 02:12:00,
2013-01-29 21:22:00,71.0,65.0,30.14,ESE,120,4.0,5.0,83,-99.99,,,-99.99,,2013-01-30 02:22:00,
2013-01-29 21:33:00,70.0,66.0,30.14,SE,127,4.0,6.0,84,-99.99,,,-99.99,,2013-01-30 02:33:00,
2013-01-29 21:42:00,70.0,66.0,30.14,SE,133,4.0,6.0,86,-99.99,,,-99.99,,2013-01-30 02:42:00,
2013-01-29 21:53:00,70.0,66.0,30.14,SE,131,4.0,6.0,86,-99.99,,,-99.99,,2013-01-30 02:53:00,
2013-01-29 22:03:00,70.0,66.0,30.14,SE,131,4.0,6.0,86,-99.99,,,-99.99,,2013-01-30 03:03:00,
2013-01-29 22:12:00,70.0,66.0,30.14,SE,129,4.0,5.0,87,-99.99,,,-99.99,,2013-01-30 03:12:00,
2013-01-29 22:22:00,70.0,66.0,30.14,SE,129,4.0,5.0,87,-99.99,,,-99.99,,2013-01-30 03:22:00,
2013-01-29 22:32:00,70.0,66.0,30.14,SE,131,3.0,5.0,88,-99.99,,,-99.99,,2013-01-30 03:32:00,
2013-01-29 22:42:00,70.0,66.0,30.14,SE,131,3.0,5.0,88,-99.99,,,-99.99,,2013-01-30 03:42:00,
2013-01-29 22:52:00,70.0,66.0,30.14,SE,126,4.0,5.0,88,-99.99,,,-99.99,,2013-01-30 03:52:00,
2013-01-29 23:02:00,70.0,66.0,30.14,SE,126,4.0,5.0,88,-99.99,,,-99.99,,2013-01-30 04:02:00,
2013-01-29 23:12:00,69.0,66.0,30.13,SE,132,4.0,8.0,88,-99.99,,,-99.99,,2013-01-30 04:12:00,
2013-01-29 23:22:00,69.0,66.0,30.13,SE,132,4.0,8.0,88,-99.99,,,-99.99,,2013-01-30 04:22:00,
2013-01-29 23:32:00,70.0,65.0,30.12,SE,137,6.0,11.0,86,-99.99,,,-99.99,,2013-01-30 04:32:00,
2013-01-29 23:42:00,70.0,65.0,30.12,SE,138,6.0,9.0,84,-99.99,,,-99.99,,2013-01-30 04:42:00,
2013-01-29 23:52:00,70.0,65.0,30.12,SE,137,6.0,9.0,84,-99.99,,,-99.99,,2013-01-30 04:52:00,